Hourly Data Report for July 04, 2021

RANKIN INLET A
NUNAVUT
Current Station Operator: NAVCAN

62°48'38.000" N
92°06'53.000" W
32.30 m
2303405
71083
YRT

Download Data

Hourly Data (July 2021)
Hourly Data Report for July 4, 2021
TIME
LST
Temp Definition
°C
Dew Point Definition
°C
Rel Hum Definition
%
Precip. Amount Definition
mm

Wind Dir Definition
10's deg

Wind Spd Definition
km/h
Visibility Definition
km
Stn Press Definition
kPa
Hmdx Definition


Wind Chill Definition


Weather Definition


00:00 5.3 2.2 81   5 23 24.1 101.24     Mostly Cloudy
01:00 4.6 1.8 82   4 20 24.1 101.27     LegendNANA
02:00 4.0 1.7 85   4 22 24.1 101.28     LegendNANA
03:00 3.9 1.7 86   4 16 24.1 101.30     Mainly Clear
04:00 4.2 2.1 86   2 17 24.1 101.32     LegendNANA
05:00 5.3 1.8 78   3 27 24.1 101.36     LegendNANA
06:00 6.1 1.6 72   5 19 24.1 101.42     Mainly Clear
07:00 7.1 1.5 68   7 21 24.1 101.49     LegendNANA
08:00 8.4 1.6 62   7 22 24.1 101.53     LegendNANA
09:00 9.1 1.8 60   6 19 24.1 101.54     Mainly Clear
10:00 9.5 1.7 58   6 25 24.1 101.58     LegendNANA
11:00 9.8 1.6 56   6 26 24.1 101.62     LegendNANA
12:00 9.7 1.6 57   6 19 24.1 101.65     Mostly Cloudy
13:00 7.6 0.2 59   11 28 48.3 101.69     LegendNANA
14:00 7.4 0.4 61   12 27 48.3 101.74     LegendNANA
15:00 6.2 0.1 65   13 26 48.3 101.76     Mostly Cloudy
16:00 6.1 0.1 65   13 23 48.3 101.76     LegendNANA
17:00 6.4 0.0 63   13 22 48.3 101.79     LegendNANA
18:00 6.0 -0.2 64   17 14 48.3 101.82     Mostly Cloudy
19:00 6.0 0.2 67   16 13 48.3 101.86     LegendNANA
20:00 5.7 0.1 67   15 13 48.3 101.90     LegendNANA
21:00 5.1 -0.2 68   13 13 48.3 101.93     Mostly Cloudy
22:00 3.8 -0.2 75   13 9 48.3 101.93     LegendNANA
23:00 4.0 -0.4 73   14 6 24.1 101.93     LegendNANA

Notes on Data Quality.

Legend

  • E = Estimated
  • M = Missing
  • NA = Not Available*
  • [empty] = Indicates an unobserved value
Date modified: